Fremont, NE

10:34 AM CST on January 18, 2017 (GMT -0600)
Fremont Municipal

Weather History for KFET - February, 2014

Change the Weather History Date:

Wednesday, February 5, 2014

  Actual Average Record
Temperature  
Mean Temperature 0 °F -  
Max Temperature 9 °F 32 °F 60 °F (2005)
Min Temperature -9 °F 13 °F -11 °F (1979)
Degree Days  
Heating Degree Days 64    
Moisture  
Dew Point -4 °F    
Average Humidity 74    
Maximum Humidity 84    
Minimum Humidity 59    
Precipitation  
Precipitation 0.00 in - - ()
Sea Level Pressure  
Sea Level Pressure 30.58 in    
Wind  
Wind Speed 14 mph (NW)    
Max Wind Speed 24 mph    
Max Gust Speed 28 mph    
Visibility 8 miles    
Events Snow    
Averages and records for this station are not official NWS values.
T = Trace of Precipitation, MM = Missing Value Source: NWS Daily Summary

Daily Weather History Graph

Daily Weather History Graph

Search for Another Location

Airport or City:

Trip Planner

Search our weather history database for the weather conditions in past years. The results will help you decide how hot, cold, wet, or windy it might be!

Date:

Astronomy

Feb. 05, 2014 Rise Set
Actual Time 7:33 AM CST 5:47 PM CST
Civil Twilight 7:04 AM CST 6:16 PM CST
Nautical Twilight 6:31 AM CST 6:49 PM CST
Astronomical Twilight 5:59 AM CST 7:21 PM CST
Moon 10:43 AM CST (2/5) No Moon Set
Length of Visible Light 11h 12m
Length of Day
10h 13m
Waxing Crescent, 39% of the Moon is Illuminated
Feb 5
Waxing Crescent
Feb 6
First Quarter
Feb 14
Full
Feb 22
Last Quarter
Mar 1
New

Hourly Weather History & Observations

Time (CST) Temp. Windchill Dew Point Humidity Pressure Visibility Wind Dir Wind Speed Gust Speed Precip Events Conditions
12:15 AM 3.2 °F -13.9 °F -0.6 °F 84% 30.44 in 5.0 mi North 12.7 mph 24.2 mph N/A   Overcast
12:35 AM 3.2 °F -15.9 °F -1.3 °F 82% 30.45 in 7.0 mi NNW 16.1 mph 20.7 mph N/A   Overcast
12:55 AM 3.0 °F -14.8 °F -1.8 °F 80% 30.44 in 5.0 mi North 13.8 mph 25.3 mph N/A   Haze
1:15 AM 2.8 °F -15.7 °F -2.4 °F 79% 30.45 in 5.0 mi North 15.0 mph 26.5 mph N/A   Haze
1:35 AM 2.8 °F -15.7 °F -1.8 °F 81% 30.45 in 5.0 mi North 15.0 mph 24.2 mph N/A   Haze
1:55 AM 2.8 °F -15.0 °F -2.2 °F 79% 30.46 in 5.0 mi NNW 13.8 mph 23.0 mph N/A   Haze
2:15 AM 3.0 °F -16.1 °F -1.8 °F 80% 30.48 in 4.0 mi NNW 16.1 mph 24.2 mph N/A   Haze
2:35 AM 3.2 °F -14.6 °F -1.3 °F 82% 30.48 in 4.0 mi North 13.8 mph 19.6 mph N/A   Overcast
2:55 AM 3.2 °F -13.1 °F -1.3 °F 82% 30.48 in 4.0 mi North 11.5 mph 21.9 mph N/A   Overcast
3:15 AM 3.2 °F -15.3 °F -1.3 °F 82% 30.48 in 5.0 mi North 15.0 mph 25.3 mph N/A   Overcast
3:35 AM 3.2 °F -14.6 °F -0.8 °F 84% 30.49 in 3.0 mi NNW 13.8 mph 24.2 mph N/A Snow Light Snow
3:55 AM 3.2 °F -15.3 °F -1.3 °F 82% 30.49 in 4.0 mi NNW 15.0 mph 26.5 mph N/A Snow Light Snow
4:15 AM 3.2 °F -15.3 °F -0.9 °F 83% 30.50 in 4.0 mi NNW 15.0 mph 23.0 mph N/A   Mostly Cloudy
4:35 AM 3.2 °F -17.1 °F -1.5 °F 81% 30.51 in 5.0 mi NNW 18.4 mph 25.3 mph N/A   Haze
4:55 AM 3.0 °F -16.7 °F -2.0 °F 80% 30.52 in 5.0 mi NNW 17.3 mph 24.2 mph N/A   Haze
5:15 AM 2.8 °F -15.7 °F -2.2 °F 79% 30.53 in 5.0 mi NNW 15.0 mph 24.2 mph N/A   Haze
5:35 AM 3.0 °F -14.1 °F -2.2 °F 79% 30.54 in 5.0 mi NNW 12.7 mph 21.9 mph N/A   Haze
5:55 AM 3.2 °F -12.2 °F -1.8 °F 80% 30.54 in 5.0 mi NNW 10.4 mph 18.4 mph N/A Snow Light Snow
6:15 AM 3.2 °F -13.9 °F -1.7 °F 80% 30.54 in 5.0 mi NNW 12.7 mph 20.7 mph N/A Snow Light Snow
6:35 AM 3.2 °F -15.9 °F -1.5 °F 81% 30.55 in 5.0 mi NNW 16.1 mph 20.7 mph N/A Snow Light Snow
6:55 AM 3.4 °F -15.0 °F -1.7 °F 80% 30.55 in 5.0 mi NNW 15.0 mph 21.9 mph N/A Snow Light Snow
7:15 AM 3.4 °F -14.4 °F -1.3 °F 81% 30.57 in 5.0 mi NNW 13.8 mph 21.9 mph N/A Snow Light Snow
7:35 AM 3.6 °F -14.1 °F -1.7 °F 79% 30.57 in 7.0 mi NNW 13.8 mph 19.6 mph N/A Snow Light Snow
7:55 AM 3.7 °F -13.2 °F -0.6 °F 82% 30.58 in 3.0 mi NNW 12.7 mph - N/A   Haze
8:15 AM 3.9 °F -14.3 °F -1.3 °F 79% 30.58 in 5.0 mi NNW 15.0 mph 20.7 mph N/A   Haze
8:35 AM 4.1 °F -13.4 °F -0.8 °F 80% 30.59 in 4.0 mi NNW 13.8 mph - N/A Snow Light Snow
8:55 AM 4.1 °F -13.4 °F -0.6 °F 81% 30.60 in 3.0 mi NNW 13.8 mph - N/A   Haze
9:15 AM 4.6 °F -14.0 °F -1.3 °F 76% 30.60 in 10.0 mi NNW 16.1 mph 20.7 mph N/A   Scattered Clouds
9:35 AM 5.4 °F -12.5 °F -0.8 °F 76% 30.60 in 10.0 mi NNW 15.0 mph - N/A   Clear
9:55 AM 5.9 °F -12.4 °F -1.5 °F 72% 30.60 in 10.0 mi NNW 16.1 mph 21.9 mph N/A   Clear
10:15 AM 6.3 °F -12.0 °F -2.2 °F 68% 30.60 in 10.0 mi NNW 16.1 mph 24.2 mph N/A   Clear
10:35 AM 6.4 °F -11.7 °F -1.5 °F 70% 30.61 in 10.0 mi NNW 16.1 mph 24.2 mph N/A   Clear
10:55 AM 6.8 °F -11.8 °F -0.8 °F 71% 30.62 in 10.0 mi NW 17.3 mph - N/A   Clear
11:15 AM 7.3 °F -11.7 °F -0.2 °F 71% 30.63 in 10.0 mi NNW 18.4 mph 24.2 mph N/A   Scattered Clouds
11:35 AM 7.5 °F -11.9 °F -0.6 °F 70% 30.62 in 10.0 mi NNW 19.6 mph 25.3 mph N/A   Scattered Clouds
11:55 AM 7.7 °F -10.7 °F -0.6 °F 69% 30.61 in 10.0 mi NNW 17.3 mph 21.9 mph N/A   Clear
12:15 PM 8.4 °F -11.2 °F -0.6 °F 67% 30.61 in 10.0 mi NW 20.7 mph - N/A   Clear
12:35 PM 8.4 °F -10.3 °F -1.1 °F 65% 30.60 in 10.0 mi NNW 18.4 mph 25.3 mph N/A   Clear
12:55 PM 8.6 °F -10.0 °F -1.1 °F 65% 30.60 in 10.0 mi NW 18.4 mph - N/A   Clear
1:15 PM 8.6 °F -8.3 °F -1.8 °F 63% 30.60 in 10.0 mi NNW 15.0 mph 25.3 mph N/A   Clear
1:35 PM 9.0 °F -10.5 °F -1.3 °F 63% 30.60 in 10.0 mi NW 20.7 mph 24.2 mph N/A   Clear
1:55 PM 9.1 °F -7.7 °F -1.8 °F 61% 30.60 in 10.0 mi NNW 15.0 mph 24.2 mph N/A   Clear
2:15 PM 9.3 °F -9.6 °F -1.3 °F 62% 30.60 in 10.0 mi NW 19.6 mph - N/A   Clear
2:35 PM 9.3 °F -10.0 °F -2.4 °F 59% 30.60 in 10.0 mi NNW 20.7 mph 25.3 mph N/A   Clear
2:55 PM 9.3 °F -9.1 °F -1.5 °F 62% 30.60 in 10.0 mi NW 18.4 mph - N/A   Clear
3:15 PM 9.3 °F -11.3 °F -1.7 °F 61% 30.60 in 10.0 mi NW 24.2 mph - N/A   Clear
3:35 PM 9.3 °F -10.5 °F -1.8 °F 61% 30.60 in 10.0 mi NW 21.9 mph 26.5 mph N/A   Clear
3:55 PM 9.1 °F -10.7 °F -2.0 °F 61% 30.60 in 10.0 mi NW 21.9 mph 26.5 mph N/A   Clear
4:15 PM 8.8 °F -11.2 °F -2.2 °F 61% 30.60 in 10.0 mi NW 21.9 mph 27.6 mph N/A   Clear
4:35 PM 8.2 °F -10.5 °F -2.9 °F 60% 30.61 in 10.0 mi NW 18.4 mph 24.2 mph N/A   Clear
4:55 PM 7.7 °F -10.7 °F -3.1 °F 61% 30.61 in 10.0 mi NW 17.3 mph - N/A   Clear
5:15 PM 7.3 °F -8.6 °F -3.1 °F 62% 30.62 in 10.0 mi NW 12.7 mph - N/A   Clear
5:35 PM 6.4 °F -9.0 °F -2.7 °F 66% 30.62 in 10.0 mi NW 11.5 mph - N/A   Clear
5:55 PM 4.8 °F -10.2 °F -3.6 °F 68% 30.63 in 10.0 mi NW 10.4 mph - N/A   Clear
6:15 PM 3.7 °F -8.4 °F -4.2 °F 70% 30.63 in 10.0 mi NW 6.9 mph - N/A   Clear
6:35 PM 2.3 °F -12.4 °F -5.4 °F 70% 30.63 in 10.0 mi NW 9.2 mph - N/A   Clear
6:55 PM 0.1 °F -16.0 °F -6.3 °F 74% 30.63 in 10.0 mi NW 10.4 mph - N/A   Clear
7:15 PM -0.4 °F -15.7 °F -6.9 °F 74% 30.63 in 10.0 mi WNW 9.2 mph - N/A   Clear
7:35 PM -2.4 °F -17.1 °F -8.3 °F 76% 30.63 in 10.0 mi WNW 8.1 mph - N/A   Clear
7:55 PM -3.1 °F -17.9 °F -9.0 °F 76% 30.63 in 10.0 mi WNW 8.1 mph - N/A   Clear
8:15 PM -5.1 °F -21.5 °F -10.3 °F 78% 30.63 in 10.0 mi West 9.2 mph - N/A   Clear
8:35 PM -5.3 °F -20.6 °F -10.5 °F 78% 30.63 in 10.0 mi WNW 8.1 mph - N/A   Clear
8:55 PM -6.7 °F -23.5 °F -11.6 °F 79% 30.63 in 10.0 mi WNW 9.2 mph - N/A   Clear
9:15 PM -7.2 °F -25.2 °F -12.3 °F 79% 30.63 in 10.0 mi WNW 10.4 mph - N/A   Clear
9:35 PM -6.5 °F -25.3 °F -11.4 °F 79% 30.63 in 10.0 mi West 11.5 mph - N/A   Clear
9:55 PM -7.6 °F -24.6 °F -12.5 °F 79% 30.63 in 10.0 mi West 9.2 mph - N/A   Clear
10:15 PM -6.2 °F -22.8 °F -11.4 °F 78% 30.63 in 10.0 mi West 9.2 mph - N/A   Clear
10:35 PM -7.2 °F -23.0 °F -13.0 °F 76% 30.63 in 10.0 mi West 8.1 mph - N/A   Clear
10:55 PM -8.3 °F -26.6 °F -13.4 °F 79% 30.63 in 10.0 mi West 10.4 mph - N/A   Clear
11:15 PM -7.1 °F -22.8 °F -12.8 °F 76% 30.63 in 10.0 mi West 8.1 mph - N/A   Clear
11:35 PM -8.5 °F -25.7 °F -14.1 °F 77% 30.62 in 10.0 mi WNW 9.2 mph - N/A   Clear
11:55 PM -9.6 °F -27.0 °F -14.8 °F 78% 30.62 in 10.0 mi West 9.2 mph - N/A   Clear